EZY708 EGAA-EGCC

Flight info

Callsign EZY708
Flight time 0h 34m
Altitude 23000
Route LISBO L603 PEPOD Q38 MAKUX
Aircraft A320/M-SDE3FGHIRWY/LB1

Departure

Time 2026-05-05 06:21
Airport Belfast International Airport (EGAA)

Arrival

Time 2026-05-05 06:55
Airport Manchester Airport (EGCC)
Time Latitude Longitude Altitude Speed Heading
2026-05-05 06:06 54.66087 -6.21483 240 ft 0 kts 335°
2026-05-05 06:09 54.66068 -6.21467 240 ft 4 kts 334°
2026-05-05 06:09 54.66044 -6.21447 240 ft 4 kts 336°
2026-05-05 06:09 54.66019 -6.21429 241 ft 4 kts 340°
2026-05-05 06:09 54.65994 -6.21416 241 ft 4 kts 347°
2026-05-05 06:10 54.65983 -6.21412 241 ft 1 kts 347°
2026-05-05 06:11 54.66087 -6.21483 239 ft 0 kts 335°
2026-05-05 06:16 54.66074 -6.21473 240 ft 2 kts 336°
2026-05-05 06:17 54.66059 -6.21461 240 ft 2 kts 338°
2026-05-05 06:17 54.66044 -6.21451 241 ft 2 kts 340°
2026-05-05 06:17 54.66028 -6.21442 241 ft 2 kts 344°
2026-05-05 06:17 54.66012 -6.21435 241 ft 2 kts 350°
2026-05-05 06:18 54.65996 -6.21431 241 ft 2 kts
2026-05-05 06:18 54.65980 -6.21434 241 ft 2 kts 25°
2026-05-05 06:18 54.65966 -6.21450 241 ft 2 kts 56°
2026-05-05 06:18 54.65962 -6.21461 241 ft 0 kts 62°
2026-05-05 06:19 54.65978 -6.21407 241 ft 20 kts 64°
2026-05-05 06:19 54.66065 -6.21082 246 ft 33 kts 64°
2026-05-05 06:19 54.66160 -6.20720 251 ft 33 kts 69°
2026-05-05 06:20 54.66261 -6.20353 256 ft 34 kts 63°
2026-05-05 06:20 54.66364 -6.19977 261 ft 35 kts 64°
2026-05-05 06:20 54.66313 -6.19675 264 ft 30 kts 163°
2026-05-05 06:20 54.66214 -6.19867 263 ft 24 kts 243°
2026-05-05 06:21 54.66080 -6.20367 255 ft 96 kts 245°
2026-05-05 06:21 54.65682 -6.21822 761 ft 147 kts 247°
2026-05-05 06:21 54.65233 -6.23507 1921 ft 164 kts 251°
2026-05-05 06:21 54.64726 -6.25440 2998 ft 189 kts 250°
2026-05-05 06:22 54.64067 -6.27582 4072 ft 220 kts 233°
2026-05-05 06:22 54.62659 -6.29070 5227 ft 260 kts 195°
2026-05-05 06:22 54.60799 -6.28831 6674 ft 280 kts 158°
2026-05-05 06:22 54.59206 -6.26842 8317 ft 289 kts 131°
2026-05-05 06:23 54.57982 -6.24052 9739 ft 295 kts 122°
2026-05-05 06:23 54.56916 -6.20984 10612 ft 312 kts 119°
2026-05-05 06:23 54.55782 -6.17606 11198 ft 337 kts 120°
2026-05-05 06:23 54.54525 -6.14079 12031 ft 351 kts 122°
2026-05-05 06:24 54.53155 -6.10520 13077 ft 358 kts 124°
2026-05-05 06:24 54.51702 -6.07046 14102 ft 365 kts 127°
2026-05-05 06:24 54.50102 -6.03592 15064 ft 370 kts 130°
2026-05-05 06:24 54.48425 -6.00187 16049 ft 375 kts 131°
2026-05-05 06:25 54.46701 -5.96772 17029 ft 380 kts 132°
2026-05-05 06:25 54.44954 -5.93315 18005 ft 385 kts 132°
2026-05-05 06:25 54.43168 -5.89746 18449 ft 405 kts 131°
2026-05-05 06:25 54.41292 -5.85949 18605 ft 427 kts 131°
2026-05-05 06:26 54.39336 -5.81951 18727 ft 446 kts 131°
2026-05-05 06:26 54.37315 -5.77790 18847 ft 459 kts 130°
2026-05-05 06:26 54.35246 -5.73523 19060 ft 468 kts 130°
2026-05-05 06:26 54.33160 -5.69224 19413 ft 471 kts 130°
2026-05-05 06:27 54.31081 -5.64955 19766 ft 473 kts 131°
2026-05-05 06:27 54.26819 -5.56249 20474 ft 478 kts 130°
2026-05-05 06:27 54.24759 -5.51767 20794 ft 480 kts 128°
2026-05-05 06:28 54.22798 -5.47200 21093 ft 483 kts 127°
2026-05-05 06:28 54.20865 -5.42498 21393 ft 485 kts 126°
2026-05-05 06:28 54.18937 -5.37742 21668 ft 487 kts 126°
2026-05-05 06:28 54.16996 -5.32983 21944 ft 488 kts 126°
2026-05-05 06:29 54.15029 -5.28241 22192 ft 490 kts 127°
2026-05-05 06:29 54.13038 -5.23517 22401 ft 491 kts 127°
2026-05-05 06:29 54.11027 -5.18813 22617 ft 492 kts 127°
2026-05-05 06:29 54.08995 -5.14100 22799 ft 493 kts 127°
2026-05-05 06:30 54.06961 -5.09399 22975 ft 493 kts 127°
2026-05-05 06:30 54.04928 -5.04699 23151 ft 494 kts 127°
2026-05-05 06:30 54.02894 -4.99987 23053 ft 494 kts 127°
2026-05-05 06:30 54.00859 -4.95260 23076 ft 494 kts 127°
2026-05-05 06:31 53.98850 -4.90597 23072 ft 494 kts 127°
2026-05-05 06:31 53.96818 -4.85883 23069 ft 494 kts 127°
2026-05-05 06:31 53.94780 -4.81166 23057 ft 494 kts 127°
2026-05-05 06:31 53.92751 -4.76478 23000 ft 488 kts 127°
2026-05-05 06:32 53.90771 -4.71914 22173 ft 473 kts 127°
2026-05-05 06:32 53.88848 -4.67500 21716 ft 469 kts 127°
2026-05-05 06:32 53.86902 -4.63048 21455 ft 468 kts 127°
2026-05-05 06:32 53.84963 -4.58625 21191 ft 461 kts 127°
2026-05-05 06:33 53.83097 -4.54374 20931 ft 438 kts 127°
2026-05-05 06:33 53.81337 -4.50362 20678 ft 419 kts 127°
2026-05-05 06:33 53.79632 -4.46474 20427 ft 404 kts 127°
2026-05-05 06:33 53.77969 -4.42688 20177 ft 398 kts 127°
2026-05-05 06:34 53.76315 -4.38933 19945 ft 396 kts 127°
2026-05-05 06:34 53.74690 -4.35253 19688 ft 395 kts 127°
2026-05-05 06:34 53.73047 -4.31538 19441 ft 393 kts 127°
2026-05-05 06:34 53.71409 -4.27839 19201 ft 392 kts 127°
2026-05-05 06:35 53.69776 -4.24155 18966 ft 391 kts 127°
2026-05-05 06:35 53.68149 -4.20490 18725 ft 390 kts 127°
2026-05-05 06:35 53.66522 -4.16837 18485 ft 388 kts 127°
2026-05-05 06:35 53.64903 -4.13207 18236 ft 386 kts 128°
2026-05-05 06:36 53.63424 -4.09457 17958 ft 384 kts 120°
2026-05-05 06:36 53.62295 -4.05376 17685 ft 383 kts 112°
2026-05-05 06:36 53.61296 -4.01271 17423 ft 382 kts 113°
2026-05-05 06:36 53.60277 -3.97133 17156 ft 381 kts 113°
2026-05-05 06:37 53.59256 -3.93023 16908 ft 379 kts 113°
2026-05-05 06:37 53.58239 -3.88930 17044 ft 380 kts 113°
2026-05-05 06:37 53.57214 -3.84815 17061 ft 380 kts 113°
2026-05-05 06:37 53.56204 -3.80767 17064 ft 380 kts 113°
2026-05-05 06:38 53.55178 -3.76659 17061 ft 380 kts 113°
2026-05-05 06:38 53.54152 -3.72558 17063 ft 380 kts 113°
2026-05-05 06:38 53.53127 -3.68465 17062 ft 380 kts 113°
2026-05-05 06:38 53.52100 -3.64360 16475 ft 382 kts 113°
2026-05-05 06:39 53.51075 -3.60255 15864 ft 378 kts 114°
2026-05-05 06:39 53.50063 -3.56208 15317 ft 374 kts 114°
2026-05-05 06:39 53.49055 -3.52204 14769 ft 371 kts 114°
2026-05-05 06:39 53.48060 -3.48269 14216 ft 368 kts 114°
2026-05-05 06:40 53.47062 -3.44325 13650 ft 365 kts 114°
2026-05-05 06:40 53.46073 -3.40419 13082 ft 362 kts 114°
2026-05-05 06:40 53.45090 -3.36546 12551 ft 358 kts 114°
2026-05-05 06:40 53.44113 -3.32707 12013 ft 356 kts 114°
2026-05-05 06:41 53.43155 -3.28951 11531 ft 351 kts 114°
2026-05-05 06:41 53.42219 -3.25282 11408 ft 333 kts 114°
2026-05-05 06:41 53.41324 -3.21780 11268 ft 318 kts 114°
2026-05-05 06:41 53.40483 -3.18415 11032 ft 309 kts 109°
2026-05-05 06:42 53.40084 -3.14934 10969 ft 303 kts 91°
2026-05-05 06:42 53.40266 -3.11409 10894 ft 305 kts 76°
2026-05-05 06:42 53.41028 -3.08127 10533 ft 300 kts 59°
2026-05-05 06:42 53.42082 -3.05120 10193 ft 298 kts 58°
2026-05-05 06:43 53.43117 -3.02165 9879 ft 296 kts 58°
2026-05-05 06:43 53.44150 -2.99197 9534 ft 294 kts 58°
2026-05-05 06:43 53.45180 -2.96224 9220 ft 292 kts 58°
2026-05-05 06:43 53.46197 -2.93280 8906 ft 290 kts 58°
2026-05-05 06:44 53.47204 -2.90360 8595 ft 288 kts 58°
2026-05-05 06:44 53.47868 -2.88433 8383 ft 287 kts 58°
2026-05-05 06:44 53.49187 -2.84609 7973 ft 284 kts 58°
2026-05-05 06:44 53.50179 -2.81732 7669 ft 282 kts 58°
2026-05-05 06:45 53.50827 -2.79842 7467 ft 281 kts 57°
2026-05-05 06:45 53.51794 -2.77017 7217 ft 273 kts 58°
2026-05-05 06:45 53.52713 -2.74322 7101 ft 261 kts 58°
2026-05-05 06:45 53.53846 -2.70742 7045 ft 272 kts 68°
2026-05-05 06:46 53.54208 -2.68649 7051 ft 279 kts 74°
2026-05-05 06:46 53.54658 -2.65451 7049 ft 281 kts 75°
2026-05-05 06:46 53.55085 -2.62300 6797 ft 278 kts 75°
2026-05-05 06:46 53.55512 -2.59128 6305 ft 276 kts 75°
2026-05-05 06:47 53.55941 -2.55992 5846 ft 272 kts 75°
2026-05-05 06:47 53.56371 -2.52910 5382 ft 269 kts 75°
2026-05-05 06:47 53.56788 -2.49859 5037 ft 266 kts 75°
2026-05-05 06:47 53.57197 -2.46807 5000 ft 267 kts 75°
2026-05-05 06:48 53.57467 -2.43715 5004 ft 269 kts 87°
2026-05-05 06:48 53.57439 -2.40549 5011 ft 270 kts 90°
2026-05-05 06:48 53.57373 -2.37477 4998 ft 270 kts 90°
2026-05-05 06:48 53.57301 -2.34317 4996 ft 270 kts 90°
2026-05-05 06:49 53.57228 -2.31155 4955 ft 268 kts 90°
2026-05-05 06:49 53.57152 -2.28037 4468 ft 266 kts 90°
2026-05-05 06:49 53.57067 -2.24933 4036 ft 263 kts 90°
2026-05-05 06:49 53.56976 -2.21944 3967 ft 246 kts 90°
2026-05-05 06:50 53.56883 -2.19174 3972 ft 236 kts 90°
2026-05-05 06:50 53.56518 -2.16460 3973 ft 239 kts 116°
2026-05-05 06:50 53.55447 -2.14357 3978 ft 242 kts 137°
2026-05-05 06:50 53.54154 -2.12544 3922 ft 241 kts 140°
2026-05-05 06:51 53.52851 -2.10793 3569 ft 240 kts 141°
2026-05-05 06:51 53.51411 -2.09373 3175 ft 240 kts 157°
2026-05-05 06:51 53.49787 -2.08990 2960 ft 231 kts 191°
2026-05-05 06:51 53.48279 -2.09637 2972 ft 223 kts 199°
2026-05-05 06:52 53.46843 -2.10407 2966 ft 212 kts 200°
2026-05-05 06:52 53.45464 -2.11162 2897 ft 205 kts 200°
2026-05-05 06:52 53.44167 -2.11930 2592 ft 192 kts 204°
2026-05-05 06:52 53.42946 -2.12826 2466 ft 190 kts 208°
2026-05-05 06:53 53.41873 -2.14020 2371 ft 181 kts 229°
2026-05-05 06:53 53.41086 -2.15601 2008 ft 176 kts 235°
2026-05-05 06:53 53.40338 -2.17169 1771 ft 168 kts 235°
2026-05-05 06:53 53.39609 -2.18684 1498 ft 165 kts 235°
2026-05-05 06:54 53.38898 -2.20175 1222 ft 163 kts 234°
2026-05-05 06:54 53.38204 -2.21619 973 ft 153 kts 232°
2026-05-05 06:54 53.37543 -2.22994 754 ft 150 kts 232°
2026-05-05 06:54 53.36908 -2.24341 554 ft 148 kts 232°
2026-05-05 06:55 53.36273 -2.25636 368 ft 141 kts 231°
2026-05-05 06:55 53.35674 -2.26879 264 ft 119 kts 232°
2026-05-05 06:55 53.35368 -2.27509 243 ft 48 kts 231°
2026-05-05 06:55 53.35252 -2.27950 239 ft 29 kts 266°
2026-05-05 06:56 53.35269 -2.28190 232 ft 16 kts 330°
2026-05-05 06:56 53.35321 -2.28179 235 ft 5 kts 18°
2026-05-05 06:56 53.35347 -2.28173 237 ft 3 kts
2026-05-05 06:56 53.35407 -2.28163 236 ft 15 kts
2026-05-05 06:57 53.35542 -2.28051 235 ft 28 kts 47°
2026-05-05 06:57 53.35696 -2.27874 245 ft 21 kts 22°
2026-05-05 06:57 53.35828 -2.27857 252 ft 18 kts
2026-05-05 06:57 53.35953 -2.27863 255 ft 18 kts 336°
2026-05-05 06:58 53.36067 -2.28005 255 ft 23 kts 322°
2026-05-05 06:58 53.36183 -2.28162 255 ft 11 kts 356°
2026-05-05 06:58 53.36224 -2.28119 255 ft 7 kts 31°
2026-05-05 06:58 53.36267 -2.28077 255 ft 7 kts 27°
2026-05-05 06:59 53.36315 -2.28046 255 ft 8 kts 24°
2026-05-05 06:59 53.36356 -2.27994 255 ft 8 kts 43°
2026-05-05 06:59 53.36394 -2.27926 255 ft 8 kts 54°
2026-05-05 06:59 53.36429 -2.27854 255 ft 8 kts 45°
2026-05-05 07:00 53.36466 -2.27792 255 ft 3 kts 44°
2026-05-05 07:00 53.36470 -2.27787 255 ft 0 kts 45°